User: anonymous   Login
Location: Four Corners
(38.2757°N, 122.4608°W)
Time: 13:48:23
(UTC+00:00)
Language:

Cosmos 1844 Rocket - Orbit

View from above orbital plane
View from above orbital plane
View from above satellite
View from above satellite

Ground track
Ground track

The orbit data is extracted from the following two-line orbital elements,

1 17974U 87041B   20052.30481174 +.00000094 +00000-0 +70430-4 0  9996
2 17974 071.0101 006.9041 0014988 330.0047 182.0526 14.17259556695208
Epoch (UTC): 21 February 2020 07:18:55
Eccentricity: 0.0014988
inclination: 71.0101°
perigee height: 824 km
apogee height: 845 km
right ascension of ascending node: 6.9041°
argument of perigee: 330.0047°
revolutions per day: 14.17259556
mean anomaly at epoch: 182.0526°
orbit number at epoch: 69520

The dashed part of the orbit path shows where the satellite is in the earth's shadow,  

DLR